{"data":{"norad_id":58912,"epoch":"2026-09-22T13:59:20.815584Z","epoch_age_seconds":72426,"freshness":"FRESH","line1":"1 58912U 24023H   26265.58287981  .00001150  00000+0  16568-3 0  9990","line2":"2 58912  49.9891 261.9931 0004182 354.8792   5.2103 14.83449285143378","mean_motion":14.83449285,"eccentricity":0.0004182,"inclination_deg":49.9891,"raan_deg":261.9931,"arg_perigee_deg":354.8792,"mean_anomaly_deg":5.2103,"bstar":0.00016568,"rev_number":14337,"period_min":97.071063673067,"perigee_km":615.53154447928,"apogee_km":621.38349613606,"semimajor_km":6996.5945203077,"source":"CELESTRAK","updated_at":"2026-09-23T09:00:19.071501Z"}}